Time,TemperatureF,DewpointF,PressureIn,WindDirection,WindDirectionDegrees,WindSpeedMPH,WindSpeedGustMPH,Humidity,HourlyPrecipIn,Conditions,Clouds,dailyrainin,SoftwareType,DateUTC
2013-01-31 00:03:00,16.0,10.9,29.59,West,270,0.0,7.0,80,0.00,,,0.00,WUHU21023XXSP,2013-01-31 06:03:00,
2013-01-31 00:09:00,16.0,10.9,29.60,West,270,2.0,10.0,80,0.00,,,0.00,WUHU21023XXSP,2013-01-31 06:09:00,
2013-01-31 00:16:00,16.2,11.1,29.60,WNW,292,3.0,10.0,80,0.00,,,0.00,WUHU21023XXSP,2013-01-31 06:16:00,
2013-01-31 00:22:00,16.3,11.5,29.60,WNW,292,7.0,9.0,81,0.00,,,0.00,WUHU21023XXSP,2013-01-31 06:22:00,
2013-01-31 00:29:00,16.3,11.5,29.61,WSW,247,0.0,7.0,81,0.00,,,0.00,WUHU21023XXSP,2013-01-31 06:29:00,
2013-01-31 00:35:00,16.3,11.2,29.60,NNW,337,6.0,8.0,80,0.00,,,0.00,WUHU21023XXSP,2013-01-31 06:35:00,
2013-01-31 00:41:00,16.3,11.2,29.61,NW,315,9.0,11.0,80,0.00,,,0.00,WUHU21023XXSP,2013-01-31 06:41:00,
2013-01-31 00:48:00,16.2,11.1,29.61,WNW,292,7.0,9.0,80,0.00,,,0.00,WUHU21023XXSP,2013-01-31 06:48:00,
2013-01-31 00:54:00,16.2,11.1,29.61,West,270,7.0,7.0,80,0.00,,,0.00,WUHU21023XXSP,2013-01-31 06:54:00,
2013-01-31 01:01:00,16.0,10.9,29.62,NW,315,7.0,7.0,80,0.00,,,0.00,WUHU21023XXSP,2013-01-31 07:01:00,
2013-01-31 01:07:00,16.0,10.9,29.62,WNW,292,5.0,7.0,80,0.00,,,0.00,WUHU21023XXSP,2013-01-31 07:07:00,
2013-01-31 01:14:00,16.0,10.9,29.62,NW,315,9.0,13.0,80,0.00,,,0.00,WUHU21023XXSP,2013-01-31 07:14:00,
2013-01-31 01:20:00,15.8,10.5,29.62,WNW,292,7.0,9.0,79,0.00,,,0.00,WUHU21023XXSP,2013-01-31 07:20:00,
2013-01-31 01:26:00,15.8,10.5,29.63,WNW,292,6.0,9.0,79,0.00,,,0.00,WUHU21023XXSP,2013-01-31 07:26:00,
2013-01-31 01:33:00,15.6,10.3,29.63,WSW,247,8.0,8.0,79,0.00,,,0.00,WUHU21023XXSP,2013-01-31 07:33:00,
2013-01-31 01:39:00,15.6,10.3,29.64,West,270,9.0,9.0,79,0.00,,,0.00,WUHU21023XXSP,2013-01-31 07:39:00,
2013-01-31 01:46:00,15.6,10.3,29.64,NW,315,6.0,9.0,79,0.00,,,0.00,WUHU21023XXSP,2013-01-31 07:46:00,
2013-01-31 01:52:00,15.6,10.6,29.64,WNW,292,8.0,8.0,80,0.00,,,0.00,WUHU21023XXSP,2013-01-31 07:52:00,
2013-01-31 01:59:00,15.6,10.6,29.64,West,270,9.0,9.0,80,0.00,,,0.00,WUHU21023XXSP,2013-01-31 07:59:00,
2013-01-31 02:05:00,15.6,10.3,29.64,WNW,292,11.0,11.0,79,0.00,,,0.00,WUHU21023XXSP,2013-01-31 08:05:00,
2013-01-31 02:11:00,15.6,10.3,29.64,NW,315,6.0,11.0,79,0.00,,,0.00,WUHU21023XXSP,2013-01-31 08:11:00,
2013-01-31 02:18:00,15.6,10.3,29.65,WSW,247,0.0,6.0,79,0.00,,,0.00,WUHU21023XXSP,2013-01-31 08:18:00,
2013-01-31 02:24:00,15.6,10.6,29.65,WNW,292,7.0,7.0,80,0.00,,,0.00,WUHU21023XXSP,2013-01-31 08:24:00,
2013-01-31 02:31:00,15.6,10.6,29.65,WSW,247,4.0,8.0,79,0.00,,,0.00,WUHU21023XXSP,2013-01-31 08:31:00,
2013-01-31 02:37:00,15.4,10.1,29.66,WNW,292,7.0,7.0,79,0.00,,,0.00,WUHU21023XXSP,2013-01-31 08:37:00,
2013-01-31 02:44:00,15.4,10.1,29.65,WNW,292,5.0,8.0,79,0.00,,,0.00,WUHU21023XXSP,2013-01-31 08:44:00,
2013-01-31 02:50:00,15.3,9.6,29.65,NW,315,6.0,9.0,78,0.00,,,0.00,WUHU21023XXSP,2013-01-31 08:50:00,
2013-01-31 02:57:00,15.3,9.3,29.66,WNW,292,6.0,12.0,77,0.00,,,0.00,WUHU21023XXSP,2013-01-31 08:57:00,
2013-01-31 03:02:00,15.3,9.3,29.66,WNW,292,9.0,12.0,77,0.00,,,0.00,WUHU21023XXSP,2013-01-31 09:02:00,
2013-01-31 03:07:00,15.1,8.8,29.66,West,270,5.0,9.0,76,0.00,,,0.00,WUHU21023XXSP,2013-01-31 09:07:00,
2013-01-31 03:14:00,14.9,8.7,29.66,WNW,292,4.0,7.0,76,0.00,,,0.00,WUHU21023XXSP,2013-01-31 09:14:00,
2013-01-31 03:20:00,14.7,8.2,29.66,WNW,292,5.0,10.0,75,0.00,,,0.00,WUHU21023XXSP,2013-01-31 09:20:00,
2013-01-31 03:27:00,14.7,8.2,29.66,WNW,292,7.0,15.0,75,0.00,,,0.00,WUHU21023XXSP,2013-01-31 09:27:00,
2013-01-31 03:33:00,14.7,8.2,29.67,West,270,4.0,8.0,75,0.00,,,0.00,WUHU21023XXSP,2013-01-31 09:33:00,
2013-01-31 03:39:00,14.5,8.3,29.67,West,270,11.0,11.0,76,0.00,,,0.00,WUHU21023XXSP,2013-01-31 09:39:00,
2013-01-31 03:46:00,14.5,8.3,29.67,West,270,10.0,11.0,76,0.00,,,0.00,WUHU21023XXSP,2013-01-31 09:46:00,
2013-01-31 03:52:00,14.4,8.1,29.67,West,270,7.0,10.0,76,0.00,,,0.00,WUHU21023XXSP,2013-01-31 09:52:00,
2013-01-31 03:59:00,14.2,8.0,29.67,WNW,292,8.0,8.0,76,0.00,,,0.00,WUHU21023XXSP,2013-01-31 09:59:00,
2013-01-31 04:05:00,14.2,8.3,29.67,WSW,247,13.0,13.0,77,0.00,,,0.00,WUHU21023XXSP,2013-01-31 10:05:00,
2013-01-31 04:11:00,14.2,8.0,29.67,West,270,5.0,13.0,76,0.00,,,0.00,WUHU21023XXSP,2013-01-31 10:11:00,
2013-01-31 04:18:00,14.2,8.0,29.67,West,270,7.0,7.0,76,0.00,,,0.00,WUHU21023XXSP,2013-01-31 10:18:00,
2013-01-31 04:24:00,14.2,8.0,29.67,WNW,292,3.0,10.0,76,0.00,,,0.00,WUHU21023XXSP,2013-01-31 10:24:00,
2013-01-31 04:31:00,14.2,8.0,29.68,WNW,292,10.0,10.0,76,0.00,,,0.00,WUHU21023XXSP,2013-01-31 10:31:00,
2013-01-31 04:37:00,14.2,8.0,29.68,West,270,6.0,10.0,76,0.00,,,0.00,WUHU21023XXSP,2013-01-31 10:37:00,
2013-01-31 04:44:00,14.2,8.0,29.69,WNW,292,7.0,7.0,76,0.00,,,0.00,WUHU21023XXSP,2013-01-31 10:44:00,
2013-01-31 04:50:00,14.2,7.7,29.69,West,270,5.0,7.0,75,0.00,,,0.00,WUHU21023XXSP,2013-01-31 10:50:00,
2013-01-31 04:56:00,14.2,7.7,29.69,West,270,6.0,11.0,75,0.00,,,0.00,WUHU21023XXSP,2013-01-31 10:56:00,
2013-01-31 05:03:00,14.2,7.7,29.69,WNW,292,6.0,11.0,75,0.00,,,0.00,WUHU21023XXSP,2013-01-31 11:03:00,
2013-01-31 05:09:00,14.2,7.7,29.69,West,270,7.0,9.0,75,0.00,,,0.00,WUHU21023XXSP,2013-01-31 11:09:00,
2013-01-31 05:16:00,14.2,7.7,29.69,WNW,292,11.0,11.0,75,0.00,,,0.00,WUHU21023XXSP,2013-01-31 11:16:00,
2013-01-31 05:22:00,14.2,7.7,29.69,WNW,292,4.0,11.0,75,0.00,,,0.00,WUHU21023XXSP,2013-01-31 11:22:00,
2013-01-31 05:29:00,14.2,8.0,29.69,WNW,292,8.0,8.0,76,0.00,,,0.00,WUHU21023XXSP,2013-01-31 11:29:00,
2013-01-31 05:35:00,14.2,8.0,29.69,WNW,292,0.0,8.0,76,0.00,,,0.00,WUHU21023XXSP,2013-01-31 11:35:00,
2013-01-31 05:41:00,14.2,8.0,29.69,West,270,6.0,8.0,76,0.00,,,0.00,WUHU21023XXSP,2013-01-31 11:41:00,
2013-01-31 05:48:00,14.2,8.0,29.69,West,270,8.0,8.0,76,0.00,,,0.00,WUHU21023XXSP,2013-01-31 11:48:00,
2013-01-31 05:54:00,14.2,8.3,29.69,West,270,5.0,8.0,77,0.00,,,0.00,WUHU21023XXSP,2013-01-31 11:54:00,
2013-01-31 06:01:00,13.8,7.9,29.70,West,270,5.0,5.0,77,0.00,,,0.00,WUHU21023XXSP,2013-01-31 12:01:00,
2013-01-31 06:07:00,13.8,7.9,29.70,WSW,247,0.0,6.0,77,0.00,,,0.00,WUHU21023XXSP,2013-01-31 12:07:00,
2013-01-31 06:14:00,13.8,8.2,29.70,West,270,5.0,6.0,78,0.00,,,0.00,WUHU21023XXSP,2013-01-31 12:14:00,
2013-01-31 06:20:00,13.6,8.0,29.70,WNW,292,10.0,10.0,78,0.00,,,0.00,WUHU21023XXSP,2013-01-31 12:20:00,
2013-01-31 06:26:00,13.6,8.0,29.70,West,270,0.0,10.0,78,0.00,,,0.00,WUHU21023XXSP,2013-01-31 12:26:00,
2013-01-31 06:33:00,13.3,7.7,29.71,West,270,9.0,9.0,78,0.00,,,0.00,WUHU21023XXSP,2013-01-31 12:33:00,
2013-01-31 06:39:00,13.3,7.7,29.71,WNW,292,3.0,9.0,78,0.00,,,0.00,WUHU21023XXSP,2013-01-31 12:39:00,
2013-01-31 06:46:00,13.3,7.7,29.72,West,270,0.0,7.0,78,0.00,,,0.00,WUHU21023XXSP,2013-01-31 12:46:00,
2013-01-31 06:52:00,13.3,7.7,29.72,NW,315,4.0,7.0,78,0.00,,,0.00,WUHU21023XXSP,2013-01-31 12:52:00,
2013-01-31 06:59:00,13.1,7.5,29.72,WNW,292,4.0,7.0,78,0.00,,,0.00,WUHU21023XXSP,2013-01-31 12:59:00,
2013-01-31 07:05:00,13.1,7.5,29.72,West,270,7.0,7.0,78,0.00,,,0.00,WUHU21023XXSP,2013-01-31 13:05:00,
2013-01-31 07:11:00,12.9,7.0,29.72,WNW,292,7.0,7.0,77,0.00,,,0.00,WUHU21023XXSP,2013-01-31 13:11:00,
2013-01-31 07:18:00,12.7,6.8,29.73,WNW,292,5.0,8.0,77,0.00,,,0.00,WUHU21023XXSP,2013-01-31 13:18:00,
2013-01-31 07:24:00,12.7,6.8,29.74,West,270,8.0,9.0,77,0.00,,,0.00,WUHU21023XXSP,2013-01-31 13:24:00,
2013-01-31 07:31:00,12.7,6.3,29.74,NW,315,7.0,8.0,75,0.00,,,0.00,WUHU21023XXSP,2013-01-31 13:31:00,
2013-01-31 07:37:00,12.7,6.3,29.74,WNW,292,7.0,8.0,75,0.00,,,0.00,WUHU21023XXSP,2013-01-31 13:37:00,
2013-01-31 07:43:00,12.7,6.3,29.75,WNW,292,9.0,9.0,75,0.00,,,0.00,WUHU21023XXSP,2013-01-31 13:43:00,
2013-01-31 07:50:00,12.6,5.8,29.76,West,270,5.0,9.0,74,0.00,,,0.00,WUHU21023XXSP,2013-01-31 13:50:00,
2013-01-31 07:56:00,12.6,5.8,29.76,WNW,292,7.0,7.0,74,0.00,,,0.00,WUHU21023XXSP,2013-01-31 13:56:00,
2013-01-31 08:03:00,12.4,5.3,29.76,WNW,292,7.0,7.0,73,0.00,,,0.00,WUHU21023XXSP,2013-01-31 14:03:00,
2013-01-31 08:09:00,12.4,5.3,29.77,West,270,12.0,12.0,73,0.00,,,0.00,WUHU21023XXSP,2013-01-31 14:09:00,
2013-01-31 08:16:00,12.6,5.2,29.77,WNW,292,15.0,15.0,72,0.00,,,0.00,WUHU21023XXSP,2013-01-31 14:16:00,
2013-01-31 08:22:00,12.6,5.2,29.77,WNW,292,9.0,15.0,72,0.00,,,0.00,WUHU21023XXSP,2013-01-31 14:22:00,
2013-01-31 08:29:00,12.6,5.2,29.78,WNW,292,7.0,11.0,72,0.00,,,0.00,WUHU21023XXSP,2013-01-31 14:29:00,
2013-01-31 08:35:00,12.6,4.9,29.78,WNW,292,14.0,14.0,71,0.00,,,0.00,WUHU21023XXSP,2013-01-31 14:35:00,
2013-01-31 08:41:00,12.7,5.1,29.78,WNW,292,7.0,14.0,71,0.00,,,0.00,WUHU21023XXSP,2013-01-31 14:41:00,
2013-01-31 08:48:00,12.7,4.9,29.78,West,270,11.0,11.0,71,0.00,,,0.00,WUHU21023XXSP,2013-01-31 14:48:00,
2013-01-31 08:54:00,12.7,5.1,29.78,WNW,292,7.0,11.0,71,0.00,,,0.00,WUHU21023XXSP,2013-01-31 14:54:00,
2013-01-31 09:01:00,13.1,5.5,29.78,NW,315,4.0,7.0,71,0.00,,,0.00,WUHU21023XXSP,2013-01-31 15:01:00,
2013-01-31 09:07:00,13.1,5.5,29.79,WNW,292,5.0,7.0,71,0.00,,,0.00,WUHU21023XXSP,2013-01-31 15:07:00,
2013-01-31 09:13:00,13.3,5.4,29.79,NW,315,4.0,14.0,70,0.00,,,0.00,WUHU21023XXSP,2013-01-31 15:13:00,
2013-01-31 09:20:00,13.3,5.0,29.79,NW,315,6.0,14.0,69,0.00,,,0.00,WUHU21023XXSP,2013-01-31 15:20:00,
2013-01-31 09:26:00,13.6,5.7,29.79,WNW,292,0.0,9.0,70,0.00,,,0.00,WUHU21023XXSP,2013-01-31 15:26:00,
2013-01-31 09:33:00,14.2,6.2,29.79,NW,315,0.0,9.0,70,0.00,,,0.00,WUHU21023XXSP,2013-01-31 15:33:00,
2013-01-31 09:39:00,14.7,6.4,29.80,WNW,292,3.0,7.0,69,0.00,,,0.00,WUHU21023XXSP,2013-01-31 15:39:00,
2013-01-31 09:46:00,15.1,6.4,29.80,WNW,292,9.0,9.0,68,0.00,,,0.00,WUHU21023XXSP,2013-01-31 15:46:00,
2013-01-31 09:52:00,15.4,6.7,29.80,NW,315,0.0,9.0,68,0.00,,,0.00,WUHU21023XXSP,2013-01-31 15:52:00,
2013-01-31 09:58:00,15.6,6.9,29.80,WNW,292,10.0,10.0,68,0.00,,,0.00,WUHU21023XXSP,2013-01-31 15:58:00,
2013-01-31 10:05:00,15.6,6.9,29.80,WNW,292,4.0,13.0,68,0.00,,,0.00,WUHU21023XXSP,2013-01-31 16:05:00,
2013-01-31 10:11:00,15.6,6.9,29.80,WNW,292,0.0,9.0,68,0.00,,,0.00,WUHU21023XXSP,2013-01-31 16:11:00,
2013-01-31 10:18:00,15.4,7.0,29.80,WSW,247,0.0,8.0,69,0.00,,,0.00,WUHU21023XXSP,2013-01-31 16:18:00,
2013-01-31 10:24:00,15.8,7.4,29.81,WNW,292,0.0,5.0,69,0.00,,,0.00,WUHU21023XXSP,2013-01-31 16:24:00,
2013-01-31 10:31:00,16.0,7.5,29.82,WNW,292,1.0,8.0,69,0.00,,,0.00,WUHU21023XXSP,2013-01-31 16:31:00,
2013-01-31 10:37:00,15.6,7.2,29.82,NW,315,2.0,3.0,69,0.00,,,0.00,WUHU21023XXSP,2013-01-31 16:37:00,
2013-01-31 10:43:00,15.6,7.5,29.82,NW,315,0.0,3.0,70,0.00,,,0.00,WUHU21023XXSP,2013-01-31 16:43:00,
2013-01-31 10:50:00,15.4,7.4,29.81,West,270,0.0,1.0,70,0.00,,,0.00,WUHU21023XXSP,2013-01-31 16:50:00,
2013-01-31 10:56:00,14.9,6.9,29.81,West,270,0.0,5.0,70,0.00,,,0.00,WUHU21023XXSP,2013-01-31 16:56:00,
2013-01-31 11:03:00,14.7,6.7,29.82,WNW,292,0.0,2.0,70,0.00,,,0.00,WUHU21023XXSP,2013-01-31 17:03:00,
2013-01-31 11:09:00,14.7,7.0,29.82,NW,315,0.0,4.0,71,0.00,,,0.00,WUHU21023XXSP,2013-01-31 17:09:00,
2013-01-31 11:16:00,14.5,7.1,29.82,NW,315,1.0,5.0,72,0.00,,,0.00,WUHU21023XXSP,2013-01-31 17:16:00,
2013-01-31 11:22:00,14.5,7.1,29.82,NW,315,2.0,5.0,72,0.00,,,0.00,WUHU21023XXSP,2013-01-31 17:22:00,
2013-01-31 11:28:00,14.5,7.1,29.82,NW,315,3.0,7.0,72,0.00,,,0.00,WUHU21023XXSP,2013-01-31 17:28:00,
2013-01-31 11:35:00,14.7,7.3,29.82,WNW,292,11.0,11.0,72,0.00,,,0.00,WUHU21023XXSP,2013-01-31 17:35:00,
2013-01-31 11:41:00,14.7,7.3,29.82,NW,315,4.0,11.0,72,0.00,,,0.00,WUHU21023XXSP,2013-01-31 17:41:00,
2013-01-31 11:48:00,14.9,7.5,29.83,NW,315,2.0,5.0,72,0.00,,,0.00,WUHU21023XXSP,2013-01-31 17:48:00,
2013-01-31 11:54:00,14.9,7.8,29.83,WNW,292,0.0,7.0,73,0.00,,,0.00,WUHU21023XXSP,2013-01-31 17:54:00,
2013-01-31 12:01:00,14.7,7.6,29.82,NW,315,0.0,6.0,73,0.00,,,0.00,WUHU21023XXSP,2013-01-31 18:01:00,
2013-01-31 12:07:00,14.7,7.6,29.83,West,270,0.0,4.0,73,0.00,,,0.00,WUHU21023XXSP,2013-01-31 18:07:00,
2013-01-31 12:13:00,14.4,7.3,29.83,WNW,292,0.0,0.0,73,0.00,,,0.00,WUHU21023XXSP,2013-01-31 18:13:00,
2013-01-31 12:20:00,14.4,7.6,29.84,NW,315,5.0,7.0,74,0.00,,,0.00,WUHU21023XXSP,2013-01-31 18:20:00,
2013-01-31 12:26:00,14.2,7.4,29.84,NW,315,0.0,7.0,74,0.00,,,0.00,WUHU21023XXSP,2013-01-31 18:26:00,
2013-01-31 12:33:00,14.2,7.7,29.84,NW,315,7.0,7.0,75,0.00,,,0.00,WUHU21023XXSP,2013-01-31 18:33:00,
2013-01-31 12:39:00,14.0,7.7,29.84,NW,315,0.0,9.0,75,0.00,,,0.00,WUHU21023XXSP,2013-01-31 18:39:00,
2013-01-31 12:46:00,13.8,7.3,29.84,West,270,5.0,5.0,75,0.00,,,0.00,WUHU21023XXSP,2013-01-31 18:46:00,
2013-01-31 12:52:00,13.8,7.1,29.84,WNW,292,3.0,6.0,74,0.00,,,0.00,WUHU21023XXSP,2013-01-31 18:52:00,
2013-01-31 12:58:00,13.8,6.8,29.85,WNW,292,0.0,6.0,73,0.00,,,0.00,WUHU21023XXSP,2013-01-31 18:58:00,
2013-01-31 13:05:00,13.8,6.8,29.85,WNW,292,4.0,5.0,73,0.00,,,0.00,WUHU21023XXSP,2013-01-31 19:05:00,
2013-01-31 13:11:00,13.6,6.6,29.85,NW,315,0.0,6.0,73,0.00,,,0.00,WUHU21023XXSP,2013-01-31 19:11:00,
2013-01-31 13:18:00,13.6,6.6,29.85,NW,315,8.0,8.0,73,0.00,,,0.00,WUHU21023XXSP,2013-01-31 19:18:00,
2013-01-31 13:24:00,13.6,6.3,29.85,West,270,0.0,8.0,72,0.00,,,0.00,WUHU21023XXSP,2013-01-31 19:24:00,
2013-01-31 13:31:00,13.6,5.7,29.85,WSW,247,0.0,10.0,70,0.00,,,0.00,WUHU21023XXSP,2013-01-31 19:31:00,
2013-01-31 13:37:00,13.6,5.7,29.86,West,270,0.0,9.0,70,0.00,,,0.00,WUHU21023XXSP,2013-01-31 19:37:00,
2013-01-31 13:43:00,13.6,5.7,29.86,WNW,292,4.0,5.0,70,0.00,,,0.00,WUHU21023XXSP,2013-01-31 19:43:00,
2013-01-31 13:50:00,13.6,5.4,29.86,NW,315,0.0,12.0,69,0.00,,,0.00,WUHU21023XXSP,2013-01-31 19:50:00,
2013-01-31 13:56:00,13.3,4.7,29.86,WNW,292,10.0,12.0,68,0.00,,,0.00,WUHU21023XXSP,2013-01-31 19:56:00,
2013-01-31 14:03:00,13.3,4.3,29.87,WNW,292,5.0,10.0,67,0.00,,,0.00,WUHU21023XXSP,2013-01-31 20:03:00,
2013-01-31 14:09:00,13.3,4.7,29.87,WNW,292,0.0,8.0,68,0.00,,,0.00,WUHU21023XXSP,2013-01-31 20:09:00,
2013-01-31 14:16:00,13.3,5.0,29.87,West,270,0.0,5.0,69,0.00,,,0.00,WUHU21023XXSP,2013-01-31 20:16:00,
2013-01-31 14:22:00,13.3,5.0,29.87,West,270,0.0,0.0,69,0.00,,,0.00,WUHU21023XXSP,2013-01-31 20:22:00,
2013-01-31 14:28:00,13.3,5.6,29.88,WNW,292,0.0,9.0,71,0.00,,,0.00,WUHU21023XXSP,2013-01-31 20:28:00,
2013-01-31 14:35:00,13.1,5.5,29.88,NW,315,3.0,9.0,71,0.00,,,0.00,WUHU21023XXSP,2013-01-31 20:35:00,
2013-01-31 14:41:00,12.9,5.3,29.88,West,270,0.0,3.0,71,0.00,,,0.00,WUHU21023XXSP,2013-01-31 20:41:00,
2013-01-31 14:48:00,13.1,5.2,29.88,WNW,292,13.0,13.0,70,0.00,,,0.00,WUHU21023XXSP,2013-01-31 20:48:00,
2013-01-31 14:54:00,12.9,5.0,29.88,WNW,292,5.0,13.0,70,0.00,,,0.00,WUHU21023XXSP,2013-01-31 20:54:00,
2013-01-31 15:01:00,12.9,5.0,29.88,WNW,292,0.0,5.0,70,0.00,,,0.00,WUHU21023XXSP,2013-01-31 21:01:00,
2013-01-31 15:07:00,13.3,5.6,29.88,NW,315,0.0,3.0,71,0.00,,,0.00,WUHU21023XXSP,2013-01-31 21:07:00,
2013-01-31 15:13:00,13.3,5.6,29.88,WNW,292,0.0,0.0,71,0.00,,,0.00,WUHU21023XXSP,2013-01-31 21:13:00,
2013-01-31 15:20:00,13.1,5.5,29.89,West,270,0.0,2.0,71,0.00,,,0.00,WUHU21023XXSP,2013-01-31 21:20:00,
2013-01-31 15:26:00,12.9,5.3,29.89,WNW,292,0.0,7.0,71,0.00,,,0.00,WUHU21023XXSP,2013-01-31 21:26:00,
2013-01-31 15:33:00,12.7,5.1,29.89,NW,315,0.0,8.0,71,0.00,,,0.00,WUHU21023XXSP,2013-01-31 21:33:00,
2013-01-31 15:39:00,12.7,5.1,29.89,NW,315,1.0,8.0,71,0.00,,,0.00,WUHU21023XXSP,2013-01-31 21:39:00,
2013-01-31 15:45:00,12.6,4.9,29.89,West,270,0.0,5.0,71,0.00,,,0.00,WUHU21023XXSP,2013-01-31 21:45:00,
2013-01-31 15:52:00,12.4,5.0,29.90,WNW,292,8.0,8.0,72,0.00,,,0.00,WUHU21023XXSP,2013-01-31 21:52:00,
2013-01-31 15:58:00,12.0,4.7,29.90,WNW,292,0.0,8.0,72,0.00,,,0.00,WUHU21023XXSP,2013-01-31 21:58:00,
2013-01-31 16:05:00,12.0,5.0,29.90,WNW,292,3.0,5.0,73,0.00,,,0.00,WUHU21023XXSP,2013-01-31 22:05:00,
2013-01-31 16:11:00,12.0,5.0,29.90,NW,315,1.0,3.0,73,0.00,,,0.00,WUHU21023XXSP,2013-01-31 22:11:00,
2013-01-31 16:18:00,11.8,5.1,29.90,WNW,292,12.0,12.0,74,0.00,,,0.00,WUHU21023XXSP,2013-01-31 22:18:00,
2013-01-31 16:24:00,11.7,5.2,29.90,WNW,292,0.0,12.0,75,0.00,,,0.00,WUHU21023XXSP,2013-01-31 22:24:00,
2013-01-31 16:30:00,11.3,4.8,29.91,WNW,292,5.0,5.0,75,0.00,,,0.00,WUHU21023XXSP,2013-01-31 22:30:00,
2013-01-31 16:37:00,11.1,4.9,29.91,West,270,0.0,6.0,76,0.00,,,0.00,WUHU21023XXSP,2013-01-31 22:37:00,
2013-01-31 16:43:00,11.1,4.9,29.92,WNW,292,4.0,7.0,76,0.00,,,0.00,WUHU21023XXSP,2013-01-31 22:43:00,
2013-01-31 16:50:00,10.9,4.7,29.92,West,270,5.0,7.0,76,0.00,,,0.00,WUHU21023XXSP,2013-01-31 22:50:00,
2013-01-31 16:56:00,10.8,4.6,29.93,WNW,292,7.0,7.0,76,0.00,,,0.00,WUHU21023XXSP,2013-01-31 22:56:00,
2013-01-31 17:03:00,10.6,4.4,29.93,West,270,5.0,9.0,76,0.00,,,0.00,WUHU21023XXSP,2013-01-31 23:03:00,
2013-01-31 17:09:00,10.4,4.2,29.93,WSW,247,3.0,9.0,76,0.00,,,0.00,WUHU21023XXSP,2013-01-31 23:09:00,
2013-01-31 17:15:00,10.2,4.0,29.93,WNW,292,8.0,8.0,76,0.00,,,0.00,WUHU21023XXSP,2013-01-31 23:15:00,
2013-01-31 17:22:00,10.2,4.0,29.94,NW,315,8.0,8.0,76,0.00,,,0.00,WUHU21023XXSP,2013-01-31 23:22:00,
2013-01-31 17:28:00,10.0,3.9,29.94,WNW,292,7.0,8.0,76,0.00,,,0.00,WUHU21023XXSP,2013-01-31 23:28:00,
2013-01-31 17:35:00,9.7,3.3,29.95,NW,315,8.0,8.0,75,0.00,,,0.00,WUHU21023XXSP,2013-01-31 23:35:00,
2013-01-31 17:41:00,9.7,3.0,29.95,WNW,292,7.0,15.0,74,0.00,,,0.00,WUHU21023XXSP,2013-01-31 23:41:00,
2013-01-31 17:48:00,9.3,2.7,29.95,WNW,292,7.0,15.0,74,0.00,,,0.00,WUHU21023XXSP,2013-01-31 23:48:00,
2013-01-31 17:54:00,9.1,2.5,29.96,WNW,292,5.0,7.0,74,0.00,,,0.00,WUHU21023XXSP,2013-01-31 23:54:00,
2013-01-31 18:01:00,9.0,2.3,29.97,West,270,0.0,5.0,74,0.00,,,0.00,WUHU21023XXSP,2013-02-01 00:01:00,
2013-01-31 18:07:00,8.8,1.9,29.97,WNW,292,3.0,7.0,73,0.00,,,0.00,WUHU21023XXSP,2013-02-01 00:07:00,
2013-01-31 18:13:00,8.6,1.7,29.97,WNW,292,8.0,12.0,73,0.00,,,0.00,WUHU21023XXSP,2013-02-01 00:13:00,
2013-01-31 18:20:00,8.4,1.5,29.97,WNW,292,6.0,12.0,73,0.00,,,0.00,WUHU21023XXSP,2013-02-01 00:20:00,
2013-01-31 18:26:00,8.4,1.5,29.98,NW,315,4.0,9.0,73,0.00,,,0.00,WUHU21023XXSP,2013-02-01 00:26:00,
2013-01-31 18:33:00,8.2,1.4,29.98,WNW,292,4.0,7.0,73,0.00,,,0.00,WUHU21023XXSP,2013-02-01 00:33:00,
2013-01-31 18:39:00,8.1,1.5,29.98,WNW,292,7.0,7.0,74,0.00,,,0.00,WUHU21023XXSP,2013-02-01 00:39:00,
2013-01-31 18:45:00,7.9,1.3,29.99,WNW,292,0.0,7.0,74,0.00,,,0.00,WUHU21023XXSP,2013-02-01 00:45:00,
2013-01-31 18:52:00,7.9,1.3,29.99,West,270,0.0,5.0,74,0.00,,,0.00,WUHU21023XXSP,2013-02-01 00:52:00,
2013-01-31 18:58:00,7.7,1.1,30.00,West,270,0.0,8.0,74,0.00,,,0.00,WUHU21023XXSP,2013-02-01 00:58:00,
2013-01-31 19:05:00,7.7,1.1,30.00,WNW,292,3.0,7.0,74,0.00,,,0.00,WUHU21023XXSP,2013-02-01 01:05:00,
2013-01-31 19:11:00,7.7,1.4,30.00,WNW,292,0.0,7.0,75,0.00,,,0.00,WUHU21023XXSP,2013-02-01 01:11:00,
2013-01-31 19:18:00,7.7,1.4,30.00,WNW,292,8.0,8.0,75,0.00,,,0.00,WUHU21023XXSP,2013-02-01 01:18:00,
2013-01-31 19:24:00,7.7,1.7,30.00,West,270,0.0,8.0,76,0.00,,,0.00,WUHU21023XXSP,2013-02-01 01:24:00,
2013-01-31 19:30:00,7.7,1.7,30.01,NW,315,6.0,6.0,76,0.00,,,0.00,WUHU21023XXSP,2013-02-01 01:30:00,
2013-01-31 19:37:00,7.7,1.7,30.01,WNW,292,7.0,7.0,76,0.00,,,0.00,WUHU21023XXSP,2013-02-01 01:37:00,
2013-01-31 19:43:00,7.7,1.7,30.01,NW,315,2.0,7.0,76,0.00,,,0.00,WUHU21023XXSP,2013-02-01 01:43:00,
2013-01-31 19:50:00,7.7,1.7,30.02,NW,315,8.0,9.0,76,0.00,,,0.00,WUHU21023XXSP,2013-02-01 01:50:00,
2013-01-31 19:56:00,7.7,1.7,30.02,WNW,292,13.0,13.0,76,0.00,,,0.00,WUHU21023XXSP,2013-02-01 01:56:00,
2013-01-31 20:02:00,7.5,1.2,30.02,NW,315,9.0,13.0,75,0.00,,,0.00,WUHU21023XXSP,2013-02-01 02:02:00,
2013-01-31 20:09:00,7.5,0.9,30.02,NW,315,8.0,9.0,74,0.00,,,0.00,WUHU21023XXSP,2013-02-01 02:09:00,
2013-01-31 20:15:00,7.3,0.8,30.03,NW,315,7.0,11.0,74,0.00,,,0.00,WUHU21023XXSP,2013-02-01 02:15:00,
2013-01-31 20:22:00,7.2,0.3,30.03,NW,315,10.0,11.0,73,0.00,,,0.00,WUHU21023XXSP,2013-02-01 02:22:00,
2013-01-31 20:28:00,7.2,0.3,30.03,West,270,0.0,10.0,73,0.00,,,0.00,WUHU21023XXSP,2013-02-01 02:28:00,
2013-01-31 20:35:00,7.0,0.1,30.03,NW,315,8.0,12.0,73,0.00,,,0.00,WUHU21023XXSP,2013-02-01 02:35:00,
2013-01-31 20:41:00,6.6,-0.3,30.04,NW,315,5.0,12.0,73,0.00,,,0.00,WUHU21023XXSP,2013-02-01 02:41:00,
2013-01-31 20:47:00,6.4,-0.7,30.04,WNW,292,8.0,13.0,72,0.00,,,0.00,WUHU21023XXSP,2013-02-01 02:47:00,
2013-01-31 20:54:00,6.4,-0.7,30.04,West,270,7.0,8.0,72,0.00,,,0.00,WUHU21023XXSP,2013-02-01 02:54:00,
2013-01-31 21:00:00,6.3,-0.9,30.05,NW,315,8.0,8.0,72,0.00,,,0.00,WUHU21023XXSP,2013-02-01 03:00:00,
2013-01-31 21:07:00,6.1,-1.1,30.05,NW,315,4.0,8.0,72,0.00,,,0.00,WUHU21023XXSP,2013-02-01 03:07:00,
2013-01-31 21:13:00,6.1,-1.1,30.05,NW,315,7.0,9.0,72,0.00,,,0.00,WUHU21023XXSP,2013-02-01 03:13:00,
2013-01-31 21:20:00,5.9,-1.3,30.06,WNW,292,5.0,9.0,72,0.00,,,0.00,WUHU21023XXSP,2013-02-01 03:20:00,
2013-01-31 21:26:00,5.7,-1.4,30.06,WNW,292,6.0,7.0,72,0.00,,,0.00,WUHU21023XXSP,2013-02-01 03:26:00,
2013-01-31 21:32:00,5.5,-1.6,30.06,WNW,292,7.0,7.0,72,0.00,,,0.00,WUHU21023XXSP,2013-02-01 03:32:00,
2013-01-31 21:39:00,5.4,-1.8,30.07,NW,315,13.0,13.0,72,0.00,,,0.00,WUHU21023XXSP,2013-02-01 03:39:00,
2013-01-31 21:45:00,5.4,-1.8,30.07,West,270,0.0,13.0,72,0.00,,,0.00,WUHU21023XXSP,2013-02-01 03:45:00,
2013-01-31 21:52:00,5.2,-2.0,30.07,WNW,292,7.0,7.0,72,0.00,,,0.00,WUHU21023XXSP,2013-02-01 03:52:00,
2013-01-31 21:58:00,4.8,-2.3,30.07,WNW,292,6.0,7.0,72,0.00,,,0.00,WUHU21023XXSP,2013-02-01 03:58:00,
2013-01-31 22:05:00,4.8,-2.3,30.08,WNW,292,10.0,10.0,72,0.00,,,0.00,WUHU21023XXSP,2013-02-01 04:05:00,
2013-01-31 22:11:00,4.8,-2.3,30.08,West,270,0.0,11.0,72,0.00,,,0.00,WUHU21023XXSP,2013-02-01 04:11:00,
2013-01-31 22:18:00,4.6,-2.5,30.08,NW,315,4.0,6.0,72,0.00,,,0.00,WUHU21023XXSP,2013-02-01 04:18:00,
2013-01-31 22:24:00,4.5,-2.7,30.08,NW,315,7.0,7.0,72,0.00,,,0.00,WUHU21023XXSP,2013-02-01 04:24:00,
2013-01-31 22:30:00,4.3,-2.8,30.08,WNW,292,0.0,7.0,72,0.00,,,0.00,WUHU21023XXSP,2013-02-01 04:30:00,
2013-01-31 22:37:00,4.1,-3.0,30.08,NW,315,6.0,9.0,72,0.00,,,0.00,WUHU21023XXSP,2013-02-01 04:37:00,
2013-01-31 22:43:00,3.9,-3.2,30.08,WNW,292,0.0,9.0,72,0.00,,,0.00,WUHU21023XXSP,2013-02-01 04:43:00,
2013-01-31 22:50:00,3.9,-3.2,30.08,WNW,292,0.0,6.0,72,0.00,,,0.00,WUHU21023XXSP,2013-02-01 04:50:00,
2013-01-31 22:56:00,3.9,-3.2,30.09,WNW,292,0.0,0.0,72,0.00,,,0.00,WUHU21023XXSP,2013-02-01 04:56:00,
2013-01-31 23:01:00,3.7,-3.3,30.09,NW,315,6.0,6.0,72,0.00,,,0.00,WUHU21023XXSP,2013-02-01 05:01:00,
2013-01-31 23:03:00,3.7,-3.3,30.09,NW,315,0.0,6.0,72,0.00,,,0.00,WUHU21023XXSP,2013-02-01 05:03:00,
2013-01-31 23:05:00,3.6,-3.5,30.09,WNW,292,7.0,7.0,72,0.00,,,0.00,WUHU21023XXSP,2013-02-01 05:05:00,
2013-01-31 23:07:00,3.6,-3.5,30.09,WNW,292,0.0,7.0,72,0.00,,,0.00,WUHU21023XXSP,2013-02-01 05:07:00,
2013-01-31 23:13:00,3.4,-3.7,30.10,WNW,292,0.0,7.0,72,0.00,,,0.00,WUHU21023XXSP,2013-02-01 05:13:00,
2013-01-31 23:20:00,3.4,-3.7,30.10,West,270,0.0,0.0,72,0.00,,,0.00,WUHU21023XXSP,2013-02-01 05:20:00,
2013-01-31 23:26:00,3.4,-3.7,30.10,West,270,6.0,6.0,72,0.00,,,0.00,WUHU21023XXSP,2013-02-01 05:26:00,
2013-01-31 23:32:00,3.0,-4.0,30.10,WNW,292,9.0,9.0,72,0.00,,,0.00,WUHU21023XXSP,2013-02-01 05:32:00,
2013-01-31 23:39:00,3.0,-4.0,30.11,West,270,6.0,9.0,72,0.00,,,0.00,WUHU21023XXSP,2013-02-01 05:39:00,
2013-01-31 23:45:00,2.8,-4.2,30.11,WNW,292,3.0,7.0,72,0.00,,,0.00,WUHU21023XXSP,2013-02-01 05:45:00,
2013-01-31 23:52:00,2.8,-4.2,30.11,NW,315,2.0,9.0,72,0.00,,,0.00,WUHU21023XXSP,2013-02-01 05:52:00,
2013-01-31 23:58:00,2.8,-4.2,30.12,West,270,0.0,9.0,72,0.00,,,0.00,WUHU21023XXSP,2013-02-01 05:58:00,